ロングモア彗星

77P/Longmore (2023)

English version
Home page
Updated on May 16, 2022

---------------------------------------------------------------------

・ プロフィール

・ 写真集

・ 軌道要素

Epoch 2022 Jan. 21.0 TT = JDT 2459600.5
T 2023 Apr. 3.28688 TT                                  Rudenko
q   2.3480320            (2000.0)            P               Q
n   0.14292484     Peri.  196.79131     -0.85859075     +0.50179279
a   3.6229659      Node    14.77281     -0.41019727     -0.54956485
e   0.3519034      Incl.   24.31815     -0.30750629     -0.66796892
P   6.90
From 1931 observations 1975 Aug. 11-2022 Jan. 30, mean residual 0".8.
     Nongravitational parameters A1 = +0.15, A2 = -0.0488.

・ 星図

・ 光度変化

        H = 14.0  G = 0.15               [    ,-427]  (              〜2022年 1月31日)
        m1 = 4.0 + 5 logΔ + 25.0 log r  [-427, 445]  (2022年 1月31日〜2024年 6月21日)
        H = 14.0  G = 0.15               [ 445,    ]  (2024年 6月21日〜              )

---------------------------------------------------------------------

軌道要素はM.P.E.C. 2022-C56に掲載されたものです。
星図はステラナビゲータ Ver.10 (アストロアーツ) で作成したものです。
光度グラフはComet for Windowsで作成したものです。

---------------------------------------------------------------------

Copyright(C) Seiichi Yoshida (comet@aerith.net). All rights reserved.